Location: Ray Roberts Lake State Park - Johnson Branch Unit
(33.3953°N, 97.0509°W)
Time: 09:49:48
(UTC-06:00)

ISS - Visible Passes

Search period start: 15 December 2018 00:00
Search period end: 25 December 2018 00:00
Orbit: 401 x 408 km, 51.6° (Epoch: 16 December)

Date Brightness Start Highest point End Pass type
(mag) Time Alt. Az. Time Alt. Az. Time Alt. Az.
15 Dec -0.4 18:46:52 10° WSW 18:48:07 12° SW 18:49:22 10° SSW visible
16 Dec -1.1 17:53:24 10° WNW 17:56:07 25° SW 17:58:51 10° S visible
21 Dec -2.1 07:01:12 10° SSW 07:04:17 38° SE 07:07:22 10° ENE visible
22 Dec -0.7 06:09:52 10° S 06:12:11 18° SE 06:14:30 10° E visible
23 Dec -3.9 06:52:54 10° SW 06:56:09 67° NW 06:59:25 10° NE visible
24 Dec -3.0 06:01:04 12° SSW 06:03:55 52° SE 06:07:07 10° NE visible
